Simultaneous Nadir Overpasses (SNOs) Predictions

Prediction of SNOs between FY3D and AQUA Satellite Orbit:

Table of predicted SNOs for the next 14.0 days since TLE Epoch: 4/6/2024
Index Date (FY3D) Time (FY3D) Lat,Lon (FY3D) SZA (FY3D ) Date (AQUA) Time (AQUA) Lat,Lon (AQUA) SZA (AQUA ) Distance(km) Time Diff (sec)
1 04/07/2024 12:15:09 -79.32, 156.97 107.21 04/07/2024 12:15:49 -79.33, 156.88 107.22 1.86 40
2 04/07/2024 13:05:49 79.11, -34.03 72.47 04/07/2024 13:05:06 79.11, -34.01 72.47 0.53 43
3 04/10/2024 01:09:39 -79.27, -36.19 108.25 04/10/2024 01:09:37 -79.27, -36.15 108.25 0.82 2
4 04/12/2024 13:13:27 79.34, -37.66 70.93 04/12/2024 13:14:04 79.34, -37.71 70.93 1.19 37
5 04/12/2024 14:04:04 -79.09, 131.65 109.45 04/12/2024 14:03:20 -79.09, 131.59 109.43 1.35 44
6 04/15/2024 01:18:59 -81.14, -75.16 104.85 04/15/2024 01:20:12 -81.70, -74.85 104.62 63.19 73
7 04/15/2024 02:07:54 79.20, 129.89 69.81 04/15/2024 02:07:48 79.20, 129.82 69.81 1.65 6
8 04/17/2024 14:11:42 -79.30, 128.20 110.95 04/17/2024 14:12:15 -79.31, 128.06 110.94 2.88 33
9 04/17/2024 15:02:22 79.10, -62.88 68.75 04/17/2024 15:01:32 79.10, -62.90 68.76 0.39 50
10 04/20/2024 02:15:34 79.49, 125.74 68.46 04/20/2024 02:16:43 79.49, 125.78 68.43 0.91 69



Historial Predications of SNOs between FY3D and AQUA
